TimeAKST,TemperatureF,Dew PointF,Humidity,Sea Level PressureIn,VisibilityMPH,Wind Direction,Wind SpeedMPH,Gust SpeedMPH,PrecipitationIn,Events,Conditions,WindDirDegrees,DateUTC
12:53 AM,-7.1,-11.9,79,30.17,10.0,Calm,Calm,-,N/A,,Mostly Cloudy,0,2013-01-30 09:53:00
1:53 AM,-7.1,-11.9,79,30.19,10.0,Calm,Calm,-,N/A,,Overcast,0,2013-01-30 10:53:00
3:53 AM,-8.0,-13.0,79,30.20,10.0,Calm,Calm,-,N/A,,Overcast,0,2013-01-30 12:53:00
4:53 AM,-7.1,-11.9,79,30.19,10.0,Calm,Calm,-,N/A,,Overcast,0,2013-01-30 13:53:00
5:53 AM,-6.0,-11.9,75,30.19,10.0,Calm,Calm,-,N/A,,Overcast,0,2013-01-30 14:53:00
6:53 AM,-5.1,-11.0,76,30.17,10.0,Calm,Calm,-,N/A,,Overcast,0,2013-01-30 15:53:00
7:53 AM,-6.0,-9.9,83,30.17,10.0,Calm,Calm,-,N/A,,Overcast,0,2013-01-30 16:53:00
8:53 AM,-7.1,-11.0,83,30.16,10.0,Calm,Calm,-,N/A,,Overcast,0,2013-01-30 17:53:00
9:53 AM,-6.0,-11.0,79,30.14,10.0,Calm,Calm,-,N/A,,Overcast,0,2013-01-30 18:53:00
10:53 AM,-5.1,-9.9,80,30.13,10.0,Calm,Calm,-,N/A,,Overcast,0,2013-01-30 19:53:00
11:37 AM,-5.1,-9.9,80,29.92,10.0,Calm,Calm,-,N/A,,Overcast,0,2013-01-30 20:37:00
11:53 AM,-4.0,-9.9,76,30.12,10.0,Calm,Calm,-,N/A,,Overcast,0,2013-01-30 20:53:00
12:53 PM,-4.0,-9.0,79,30.11,10.0,Calm,Calm,-,N/A,,Overcast,0,2013-01-30 21:53:00
1:53 PM,-2.9,-8.0,79,30.09,9.0,Calm,Calm,-,0.00,Snow,Light Snow,0,2013-01-30 22:53:00
2:53 PM,-0.9,-8.0,72,30.06,7.0,Calm,Calm,-,0.00,Snow,Light Snow,0,2013-01-30 23:53:00
3:53 PM,-2.0,-7.1,79,30.06,7.0,Calm,Calm,-,0.00,Snow,Light Snow,0,2013-01-31 00:53:00
4:53 PM,-0.9,-6.0,79,30.04,10.0,Calm,Calm,-,0.00,,Overcast,0,2013-01-31 01:53:00
5:53 PM,-0.9,-6.0,79,30.01,10.0,Calm,Calm,-,N/A,,Overcast,0,2013-01-31 02:53:00
6:53 PM,-0.9,-6.0,79,30.00,10.0,Calm,Calm,-,N/A,,Overcast,0,2013-01-31 03:53:00
7:53 PM,-0.9,-5.1,83,29.98,10.0,Calm,Calm,-,0.00,Snow,Light Snow,0,2013-01-31 04:53:00
8:53 PM,-0.0,-5.1,79,29.96,10.0,Calm,Calm,-,0.00,Snow,Light Snow,0,2013-01-31 05:53:00
9:29 PM,-0.0,-5.1,79,29.75,10.0,Calm,Calm,-,0.00,Snow,Light Snow,0,2013-01-31 06:29:00
9:53 PM,-0.0,-5.1,79,29.94,9.0,Calm,Calm,-,0.00,,Overcast,0,2013-01-31 06:53:00
10:53 PM,-0.0,-4.0,83,29.93,10.0,Calm,Calm,-,N/A,,Overcast,0,2013-01-31 07:53:00
11:53 PM,1.0,-4.0,79,29.93,10.0,WNW,4.6,-,N/A,,Overcast,300,2013-01-31 08:53:00